This demonstration page uses our WeatherBlox Daily Observations layout. Learn more.

Left ArrowRight Arrow

Hourly Observations for February 4, 2016

Temp ( °F °C ) Dew Point ( °F °C ) Humidity (%) Winds ( mph kmh ) Pressure ( in mb ) Visibility ( mi km ) Precip ( " mm )
12:15 am 00:15 Clear 18 -8 -27 -33 11 11 W 9 15 30.36 1028 10 16 0.00 0.00
12:35 am 00:35 Clear 18 -8 -27 -33 11 11 W 12 19 30.36 1028 10 16 0.00 0.00
12:55 am 00:55 Clear 18 -8 -27 -33 11 11 W 12 19 30.36 1028 10 16 0.00 0.00
1:15 am 01:15 Clear 18 -8 -26 -32 12 12 W 9 15 30.36 1028 10 16 0.00 0.00
1:35 am 01:35 Clear 16 -9 -27 -33 12 12 W 8 13 30.36 1028 10 16 0.00 0.00
1:55 am 01:55 Clear 16 -9 -27 -33 12 12 W 8 13 30.36 1028 10 16 0.00 0.00
2:15 am 02:15 Clear 16 -9 -27 -33 12 12 W 10 17 30.36 1028 10 16 0.00 0.00
2:35 am 02:35 Clear 18 -8 -27 -33 11 11 W 13 20 30.36 1028 10 16 0.00 0.00
2:55 am 02:55 Clear 16 -9 -27 -33 12 12 W 12 19 30.36 1028 10 16 0.00 0.00
3:15 am 03:15 Clear 16 -9 -27 -33 12 12 W 8 13 30.36 1028 10 16 0.00 0.00
3:35 am 03:35 Clear 16 -9 -27 -33 12 12 W 13 20 30.36 1028 10 16 0.00 0.00
3:55 am 03:55 Clear 16 -9 -29 -34 11 11 W 7 11 30.36 1028 10 16 0.00 0.00
4:15 am 04:15 Clear 14 -10 -29 -34 12 12 W 8 13 30.33 1027 10 16 0.00 0.00
4:35 am 04:35 Clear 14 -10 -29 -34 12 12 W 9 15 30.36 1028 10 16 0.00 0.00
4:55 am 04:55 Clear 14 -10 -29 -34 12 12 W 13 20 30.33 1027 10 16 0.00 0.00
5:15 am 05:15 Clear 16 -9 -27 -33 12 12 W 8 13 30.33 1027 10 16 0.00 0.00
5:35 am 05:35 Clear 12 -11 -29 -34 13 13 W 6 9 30.36 1028 10 16 0.00 0.00
5:55 am 05:55 Clear 12 -11 -29 -34 13 13 WSW 5 7 30.36 1028 10 16 0.00 0.00
6:15 am 06:15 Clear 10 -12 -31 -35 13 13 WSW 8 13 30.36 1028 10 16 0.00 0.00
6:35 am 06:35 Clear 10 -12 -31 -35 13 13 W 6 9 30.36 1028 10 16 0.00 0.00
6:55 am 06:55 Clear 10 -12 -33 -36 11 11 W 5 7 30.36 1028 10 16 0.00 0.00
7:15 am 07:15 Clear 10 -12 -33 -36 11 11 W 8 13 30.36 1028 10 16 0.00 0.00
7:35 am 07:35 Clear 10 -12 -33 -36 11 11 W 9 15 30.36 1028 10 16 0.00 0.00
7:55 am 07:55 Sunny 10 -12 -31 -35 13 13 W 8 13 30.39 1029 10 16 0.00 0.00
8:15 am 08:15 Sunny 12 -11 -31 -35 12 12 W 7 11 30.39 1029 10 16 0.00 0.00
8:35 am 08:35 Sunny 12 -11 -29 -34 13 13 WSW 9 15 30.39 1029 10 16 0.00 0.00
8:55 am 08:55 Sunny 16 -9 -27 -33 12 12 W 10 17 30.36 1028 10 16 0.00 0.00
9:15 am 09:15 Sunny 18 -8 -27 -33 11 11 W 8 13 30.36 1028 10 16 0.00 0.00
9:35 am 09:35 Sunny 18 -8 -26 -32 12 12 W 7 11 30.36 1028 10 16 0.00 0.00
9:55 am 09:55 Sunny 21 -6 -26 -32 11 11 W 8 13 30.33 1027 10 16 0.00 0.00
10:15 am 10:15 Sunny 21 -6 -24 -31 12 12 W 8 13 30.36 1028 10 16 0.00 0.00
10:35 am 10:35 Sunny 25 -4 -22 -30 11 11 W 9 15 30.36 1028 10 16 0.00 0.00
10:55 am 10:55 Sunny 27 -3 -20 -29 11 11 W 8 13 30.33 1027 10 16 0.00 0.00
11:15 am 11:15 Sunny 27 -3 -20 -29 11 11 WNW 8 13 30.33 1027 10 16 0.00 0.00
11:35 am 11:35 Sunny 27 -3 -20 -29 11 11 WNW 10 17 30.33 1027 10 16 0.00 0.00
11:55 am 11:55 Sunny 28 -2 -20 -29 11 11 WNW 13 20 30.33 1027 10 16 0.00 0.00
12:15 pm 12:15 Sunny 28 -2 -18 -28 12 12 WNW 14 22 30.33 1027 10 16 0.00 0.00
12:35 pm 12:35 Sunny 28 -2 -18 -28 12 12 WNW 10 17 30.33 1027 10 16 0.00 0.00
12:55 pm 12:55 Sunny 30 -1 -18 -28 11 11 NW 9 15 30.33 1027 10 16 0.00 0.00
1:15 pm 13:15 Sunny 30 -1 -18 -28 11 11 NW 9 15 30.33 1027 10 16 0.00 0.00
1:35 pm 13:35 Sunny 32 0 -17 -27 11 11 NW 10 17 30.30 1026 10 16 0.00 0.00
1:55 pm 13:55 Sunny 32 0 -17 -27 11 11 NW 12 19 30.30 1026 10 16 0.00 0.00
2:15 pm 14:15 Sunny 32 0 -17 -27 11 11 NW 8 13 30.30 1026 10 16 0.00 0.00
2:35 pm 14:35 Sunny 34 1 -17 -27 10 10 NW 7 11 30.30 1026 10 16 0.00 0.00
2:55 pm 14:55 Sunny 34 1 -15 -26 11 11 NW 6 9 30.30 1026 10 16 0.00 0.00
3:15 pm 15:15 Sunny 36 2 -15 -26 10 10 NW 5 7 30.30 1026 10 16 0.00 0.00
3:35 pm 15:35 Sunny 34 1 -15 -26 11 11 NW 7 11 30.33 1027 10 16 0.00 0.00
3:55 pm 15:55 Sunny 34 1 -17 -27 10 10 NW 3 6 30.33 1027 10 16 0.00 0.00
4:15 pm 16:15 Sunny 36 2 -15 -26 10 10 WNW 3 6 30.33 1027 10 16 0.00 0.00
4:35 pm 16:35 Sunny 36 2 -13 -25 11 11 Calm 30.33 1027 10 16 0.00 0.00
4:55 pm 16:55 Sunny 36 2 -15 -26 10 10 Calm 30.33 1027 10 16 0.00 0.00
5:15 pm 17:15 Sunny 36 2 -15 -26 10 10 Calm 30.33 1027 10 16 0.00 0.00
5:35 pm 17:35 Sunny 30 -1 -17 -27 12 12 Calm 30.36 1028 10 16 0.00 0.00
5:55 pm 17:55 Sunny 27 -3 -20 -29 11 11 SW 3 6 30.36 1028 10 16 0.00 0.00
6:15 pm 18:15 Clear 21 -6 -24 -31 12 12 SW 3 6 30.42 1030 10 16 0.00 0.00
6:35 pm 18:35 Clear 19 -7 -26 -32 12 12 Calm 30.45 1031 10 16 0.00 0.00
6:55 pm 18:55 Clear 18 -8 -26 -32 12 12 undefined N/A 30.45 1031 10 16 0.00 0.00
7:15 pm 19:15 Clear 18 -8 -27 -33 11 11 Calm 30.42 1030 10 16 0.00 0.00
7:35 pm 19:35 Clear 16 -9 -27 -33 12 12 undefined N/A 30.45 1031 10 16 0.00 0.00
7:55 pm 19:55 Clear 16 -9 -27 -33 12 12 SW 6 9 30.45 1031 10 16 0.00 0.00
8:15 pm 20:15 Clear 16 -9 -27 -33 12 12 SW 5 7 30.45 1031 10 16 0.00 0.00
8:35 pm 20:35 Clear 18 -8 -27 -33 11 11 WSW 5 7 30.45 1031 10 16 0.00 0.00
8:55 pm 20:55 Clear 18 -8 -27 -33 11 11 SW 3 6 30.45 1031 10 16 0.00 0.00
9:15 pm 21:15 Clear 16 -9 -27 -33 12 12 Calm 30.45 1031 10 16 0.00 0.00
9:35 pm 21:35 Clear 14 -10 -29 -34 12 12 SW 7 11 30.48 1032 10 16 0.00 0.00
9:55 pm 21:55 Clear 16 -9 -27 -33 12 12 SW 7 11 30.45 1031 10 16 0.00 0.00
10:15 pm 22:15 Clear 18 -8 -27 -33 11 11 SW 7 11 30.45 1031 10 16 0.00 0.00
10:35 pm 22:35 Clear 16 -9 -27 -33 12 12 SW 6 9 30.45 1031 10 16 0.00 0.00
10:55 pm 22:55 Clear 16 -9 -29 -34 11 11 Calm 30.45 1031 10 16 0.00 0.00
11:15 pm 23:15 Clear 16 -9 -29 -34 11 11 SSW 3 6 30.45 1031 10 16 0.00 0.00
11:35 pm 23:35 Clear 14 -10 -29 -34 12 12 SW 6 9 30.48 1032 10 16 0.00 0.00
11:55 pm 23:55 Clear 16 -9 -27 -33 12 12 S 6 9 30.45 1031 10 16 0.00 0.00

Powered by AerisWeather